Погода в Кардашове-Ржечице

Чехия     49°11′06″N   14°51′03″E
темп.,
°C
ветер,
м/с
пор.,
м/с
влажн.,
%
обл.,
%
осадки,
мм/ч
давл.,
гПа
погр.,
м
19 сентября, вс
вс1923:00+12ссз268985 0.0 1016304
02:00+11сз239499 0.0 1016118
05:00+11с3688100 0.0 1016374
08:00+10ссв358928 0.0 1016243
11:00+13св2268100 0.0 1015994
14:00+13св336899 0.0 1015918
17:00+14ссв44627 0.0 1013948
20:00+9ссв35760 0.0 101583
20 сентября, пн
пн2023:00+7всв36820 0.0 1017128
02:00+6св118540 0.0 101810
05:00+5св118721 0.0 101810
08:00+7всв117987 0.0 102066
11:00+11всв225999 0.0 1019917
14:00+13ссв325576 0.0 10191070
17:00+12ссв335497 0.0 10201095
20:00+11св345691 0.0 1021113
21 сентября, вт
вт2123:00+10всв2458100 0.0 1023124
02:00+8всв116212 0.0 102411
05:00+6в11695 0.0 102510
08:00+7всв116784 0.0 102637
11:00+11юв1154100 0.0 1026414
14:00+13зюз114942 0.0 10261106
17:00+14сз2348100 0.0 10251640
20:00+11ссв2255100 0.0 102624
22 сентября, ср
ср2223:00+9ссв2561100 0.0 1027128
02:00+9с2461100 0.0 1027134
05:00+8ссз2266100 0.0 102665
08:00+8сз2673100 0.0 1027262
11:00+11ссз4562100 0.0 10261030
14:00+13с455578 0.0 10251416
17:00+13с345692 0.0 10231327
20:00+11с2263100 0.0 102445
23 сентября, чт
чт2323:00+10зсз1164100 0.0 102316
02:00+10з2368100 0.0 1022115
05:00+9з26715 0.0 1022211
08:00+8з2475100 0.0 1022152
11:00+13з356019 0.0 1020685
14:00+17з45497 0.0 10181407
17:00+17зсз4654100 0.0 10161214
20:00+12з2372100 0.0 101639